Location: Newark
(52.9447°N, 5.7817°E)
Time: 23:40:48
(UTC+00:00)

ISS - Pass Details

Date: 23 September 2020
Orbit: 417 x 420 km, 51.6° (Epoch: 27 October)

Event Time Altitude Azimuth Distance (km) Brightness Sun altitude
Rises 18:58:51 0° 250° (WSW) 2,362 1.0 -13.7°
Reaches altitude 10° 19:00:57 10° 247° (WSW) 1,500 -0.2 -14.0°
Maximum altitude 19:04:16 59° 167° (SSE) 492 -3.6 -14.5°
Enters shadow 19:05:36 32° 101° (E) 753 -3.0 -14.7°
